Volver al catálogo

SOLRAD 3/INJUN 1

ActivoCienciaLEO
NORAD 117·PAYLOAD·🇺🇸 United States

Lanzado Jun 29, 1961 desde Cape Canaveral Space Force Station

Loading…

Próximos Pases (próximas 24 horas)

TLE

ActualizadoSource: Space-Track

Época: Sep 7, 2026, 11:05 UTC

1 00117U 61015B   26250.46247792 -.00000056  00000-0  16205-4 0  9998
2 00117  66.8127 164.5572 0083664 242.5673 116.6879 13.90197880305492

Sigue SOLRAD 3/INJUN 1 en tiempo real con AllMySat

Download on the App Store